STARLINK-2591 (48361 NORAD) Tracking and Keplerian Element Data

This shows tracking and keplerian element data for the satellite.

Feedback or suggestion? Click here.




ElementValue
Catalog48361
NameSTARLINK-2591
Epoch Orbit1381
Epoch Day214.72830245
Epoch Year2021
RAAN343.2576
Inclination53.0559
Eccentricity2.42E-05
Argument of Perigee110.7819
Mean Anonmoly249.3195
Mean Motion15.05634699
Decay Rate-9.649E-05
L11 48361U 21038J 21214.72830245 -.00009649 00000-0 -64305-3 0 9998
L22 48361 53.0559 343.2576 0000242 110.7819 249.3195 15.05634699 13810

Live tracking and technical data element details for STARLINK-2591 (NORAD 48361). STARLINK-2591 can be tracked NOW for your location showing map with azimuth and elevation plus other details from your city location.

Track the satellite on the map from your city or location and see movement details for azimuth, elevation, latitude, longitude, range, height, and movement on the map or in text.







IsCatalogInMostPopularTable: catalog: 48361, numindb: 30
Update: records affected: 1



GetName: 48361 STARLINK-2591

Hit Count: updated at: Tue, 03 Aug 2021 23:13:58 GMT